This is the latest recevied weather packets stored in our database for station/object DL4JCP-6. If no packets are shown the sender has not sent any weather packets the latest 10 day(s).
| Time | Temp. | Humidity | Pressure | Rain* | Wind** | Luminosity | Snow |
|---|---|---|---|---|---|---|---|
| 1777631522 | 17.22° C | 50% | 1030.5 hPa | 0 mm | - | - | - |
| 1777631222 | 17.22° C | 49% | 1030.5 hPa | 0 mm | - | - | - |
| 1777630922 | 17.22° C | 50% | 1030.6 hPa | 0 mm | - | - | - |
| 1777630695 | 17.22° C | 50% | 1030.6 hPa | 0 mm | - | - | - |
| 1777630622 | 17.22° C | 50% | 1030.6 hPa | 0 mm | - | - | - |
| 1777630322 | 16.67° C | 51% | 1030.7 hPa | 0 mm | - | - | - |
| 1777630021 | 17.22° C | 49% | 1030.9 hPa | 0 mm | - | - | - |
| 1777629795 | 16.67° C | 50% | 1030.6 hPa | 0 mm | - | - | - |
| 1777629722 | 16.67° C | 50% | 1030.6 hPa | 0 mm | - | - | - |
| 1777629421 | 16.67° C | 51% | 1030.7 hPa | 0 mm | - | - | - |
| 1777629122 | 16.67° C | 51% | 1030.7 hPa | 0 mm | - | - | - |
| 1777628895 | 16.67° C | 49% | 1030.7 hPa | 0 mm | - | - | - |
| 1777628821 | 16.67° C | 49% | 1030.7 hPa | 0 mm | - | - | - |
| 1777628521 | 16.67° C | 50% | 1030.9 hPa | 0 mm | - | - | - |
| 1777628222 | 16.11° C | 50% | 1030.8 hPa | 0 mm | - | - | - |
| 1777627995 | 16.11° C | 49% | 1030.8 hPa | 0 mm | - | - | - |
| 1777627923 | 16.11° C | 49% | 1030.8 hPa | 0 mm | - | - | - |
| 1777627098 | 16.11° C | 50% | 1031 hPa | 0 mm | - | - | - |
| 1777626198 | 15.56° C | 51% | 1031 hPa | 0 mm | - | - | - |
| 1777625297 | 15° C | 51% | 1031.1 hPa | 0 mm | - | - | - |
| 1777624398 | 15.56° C | 53% | 1031.2 hPa | 0 mm | - | - | - |
| 1777623497 | 15° C | 54% | 1031.1 hPa | 0 mm | - | - | - |
| 1777622597 | 14.44° C | 54% | 1031.2 hPa | 0 mm | - | - | - |
| 1777621697 | 14.44° C | 54% | 1031.3 hPa | 0 mm | - | - | - |
| 1777620794 | 13.89° C | 56% | 1031.3 hPa | 0 mm | - | - | - |
* Rain latest hour (hover to see other rain measurements)
** Current wind speed in m/s (hover to see current wind gust speed)